Weather in Mihaylovka

Ukraine / Cherkassi District     49˚06′58″N   32˚04′28″E
temp.,
°C
wind,
m/s
gust,
m/s
humid.,
%
clouds,
%
prec.,
mm/h
press.,
hPa
HPBL,
m
15 january, fri
fri1523:00−4˚ssw489228 0.0 1006155
02:00−5˚ssw369349 0.0 1006131
05:00−5˚ssw479453 0.0 1006171
08:00−5˚sw369756 0.1 1007176
11:00−5˚nw579199 0.6 1009485
14:00−6˚nnw5687100 0.8 1010592
17:00−9˚nw6882100 0.2 1011869
20:00−10˚wnw488186 0.2 1013558
16 january, sat
sat1623:00−10˚wnw588396 0.1 1014692
02:00−11˚wnw498697 0.1 1014721
05:00−11˚wnw4889100 0.1 1014762
08:00−11˚w4788100 0.1 1015709
11:00−10˚w577987 0.0 1016720
14:00−10˚wnw467893 0.0 1016693
17:00−12˚nw4582100 0.0 1016541
20:00−14˚nw468695 0.0 1017467
17 january, sun
sun1723:00−15˚nw358451 0.0 1018399
02:00−15˚nnw368526 0.0 1018376
05:00−15˚nnw24860 0.0 1017232
08:00−15˚nnw24860 0.0 1018161
11:00−13˚n23793 0.0 1018484
14:00−12˚nnw237551 0.0 1018589
17:00−12˚nnw2384100 0.0 1018193
20:00−13˚n3587100 0.0 1019372
18 january, mon
mon1823:00−13˚n3486100 0.0 1019401
02:00−14˚nnw248898 0.0 1019237
05:00−14˚nnw4687100 0.0 1019379
08:00−13˚nw3590100 0.0 1020374
11:00−12˚nnw3483100 0.0 1021579
14:00−11˚nw3480100 0.1 1020647
17:00−11˚nw3487100 0.1 1022508
20:00−12˚nnw3491100 0.2 1022424
19 january, tue
tue1923:00−12˚nw359088 0.1 1023377
02:00−13˚nw359191 0.1 1023364
05:00−14˚nw359386 0.0 1024306
08:00−14˚nw369288 0.0 1025361
11:00−12˚nw4586100 0.1 1025581
14:00−11˚nw4683100 0.1 1025718
17:00−12˚nnw4788100 0.1 1026633
20:00−12˚nnw4789100 0.1 1027507